Tracking 22836 objects as of 18-Apr-2021
HD Live streaming from Space Station
objects crossing your sky now

KYOKKO 1 (EXOS A)

Track KYOKKO 1 (EXOS A) now!
10-day predictions
KYOKKO 1 (EXOS A) is classified as:


NORAD ID: 10664
Int'l Code: 1978-014A
Perigee: 655.6 km
Apogee: 3,941.4 km
Inclination: 65.4 °
Period: 133.9 minutes
Semi major axis: 8669 km
RCS: 1.0778 m2 (large)
Launch date: February 4, 1978
Source: Japan (JPN)
Launch site: KAGOSHIMA SPACE CENTER UNIVERSITY OF TOKYO (KSCUT)
aabbcc
Your satellite tracking list
Your tracking list is empty




NASA's NSSDC Master Catalog

Two Line Element Set (TLE):
1 10664U 78014A   21107.84250580 -.00000023  00000-0  18380-4 0  9990
2 10664  65.3740 286.4447 1895072 112.7879 268.3843 10.75501848679887
Source of the keplerian elements: AFSPC